date,time,SUV Intensity [MED/Hr],UV Index,Daily total [MED],Since Last [MED]
28/01/2022,00:03:59,0.000,0.0,0.0,0.0
28/01/2022,00:05:09,0.001,0.0,0.0,0.0
28/01/2022,00:05:58,0.000,0.0,0.0,0.0
28/01/2022,00:06:59,0.000,0.0,0.0,0.0
28/01/2022,00:07:59,0.000,0.0,0.0,0.0
28/01/2022,00:08:59,0.000,0.0,0.0,0.0
28/01/2022,00:09:59,0.000,0.0,0.0,0.0
28/01/2022,00:10:59,0.000,0.0,0.0,0.0
28/01/2022,00:11:58,-0.001,0.0,0.0,0.0
28/01/2022,00:12:59,0.000,0.0,0.0,0.0
28/01/2022,00:14:00,0.001,0.0,0.0,0.0
28/01/2022,00:15:07,0.000,0.0,0.0,0.0
28/01/2022,00:15:59,0.001,0.0,0.0,0.0
28/01/2022,00:17:00,0.001,0.0,0.0,0.0
28/01/2022,00:17:59,-0.000,0.0,0.0,0.0
28/01/2022,00:18:59,-0.000,0.0,0.0,0.0
28/01/2022,00:19:59,0.000,0.0,0.0,0.0
28/01/2022,00:20:59,0.000,0.0,0.0,0.0
28/01/2022,00:22:00,0.000,0.0,0.0,0.0
28/01/2022,00:22:58,-0.001,0.0,0.0,0.0
28/01/2022,00:23:59,0.000,0.0,0.0,0.0
28/01/2022,00:25:07,-0.000,0.0,0.0,0.0
28/01/2022,00:25:59,0.000,0.0,0.0,0.0
28/01/2022,00:26:59,0.000,0.0,0.0,0.0
28/01/2022,00:27:59,0.001,0.0,0.0,0.0
28/01/2022,00:29:00,0.000,0.0,0.0,0.0
28/01/2022,00:29:58,0.001,0.0,0.0,0.0
28/01/2022,00:31:08,0.001,0.0,0.0,0.0
28/01/2022,00:31:59,0.000,0.0,0.0,0.0
28/01/2022,00:32:59,0.000,0.0,0.0,0.0
28/01/2022,00:33:59,0.001,0.0,0.0,0.0
28/01/2022,00:34:59,-0.000,0.0,0.0,0.0
28/01/2022,00:35:59,0.000,0.0,0.0,0.0
28/01/2022,00:36:59,0.000,0.0,0.0,0.0
28/01/2022,00:38:00,0.001,0.0,0.0,0.0
28/01/2022,00:38:59,0.000,0.0,0.0,0.0
28/01/2022,00:39:59,0.000,0.0,0.0,0.0
28/01/2022,00:40:59,0.000,0.0,0.0,0.0
28/01/2022,00:41:58,0.001,0.0,0.0,0.0
28/01/2022,00:42:59,0.000,0.0,0.0,0.0
28/01/2022,00:44:07,0.000,0.0,0.0,0.0
28/01/2022,00:44:58,0.001,0.0,0.0,0.0
28/01/2022,00:46:00,0.000,0.0,0.0,0.0
28/01/2022,00:46:59,-0.001,0.0,0.0,0.0
28/01/2022,00:47:59,0.000,0.0,0.0,0.0
28/01/2022,00:49:00,0.001,0.0,0.0,0.0
28/01/2022,00:49:58,0.001,0.0,0.0,0.0
28/01/2022,00:50:59,0.000,0.0,0.0,0.0
28/01/2022,00:51:59,0.001,0.0,0.0,0.0
28/01/2022,00:53:00,0.000,0.0,0.0,0.0
28/01/2022,00:54:07,-0.001,0.0,0.0,0.0
28/01/2022,00:55:02,0.000,0.0,0.0,0.0
28/01/2022,00:55:59,-0.001,0.0,0.0,0.0
28/01/2022,00:56:59,-0.001,0.0,0.0,0.0
28/01/2022,00:58:00,0.001,0.0,0.0,0.0
28/01/2022,00:58:59,-0.001,0.0,0.0,0.0
28/01/2022,00:59:59,0.000,0.0,0.0,0.0
28/01/2022,01:00:59,0.000,0.0,0.0,0.0
28/01/2022,01:01:59,0.000,0.0,0.0,0.0
28/01/2022,01:03:01,-0.000,0.0,0.0,0.0
28/01/2022,01:03:59,-0.000,0.0,0.0,0.0
28/01/2022,01:04:59,0.000,0.0,0.0,0.0
28/01/2022,01:05:59,-0.000,0.0,0.0,0.0
28/01/2022,01:06:59,0.000,0.0,0.0,0.0
28/01/2022,01:07:58,0.001,0.0,0.0,0.0
28/01/2022,01:08:59,0.000,0.0,0.0,0.0
28/01/2022,01:09:59,0.000,0.0,0.0,0.0
28/01/2022,01:10:59,0.001,0.0,0.0,0.0
28/01/2022,01:11:59,0.001,0.0,0.0,0.0
28/01/2022,01:12:59,0.000,0.0,0.0,0.0
28/01/2022,01:14:00,0.001,0.0,0.0,0.0
28/01/2022,01:14:59,0.000,0.0,0.0,0.0
28/01/2022,01:15:59,0.000,0.0,0.0,0.0
28/01/2022,01:17:00,0.000,0.0,0.0,0.0
28/01/2022,01:18:00,0.001,0.0,0.0,0.0
28/01/2022,01:18:59,0.000,0.0,0.0,0.0
28/01/2022,01:19:59,0.001,0.0,0.0,0.0
28/01/2022,01:20:59,0.000,0.0,0.0,0.0
28/01/2022,01:21:59,0.000,0.0,0.0,0.0
28/01/2022,01:23:00,0.000,0.0,0.0,0.0
28/01/2022,01:23:59,0.000,0.0,0.0,0.0
28/01/2022,01:24:58,0.000,0.0,0.0,0.0
28/01/2022,01:25:59,0.000,0.0,0.0,0.0
28/01/2022,01:26:59,0.000,0.0,0.0,0.0
28/01/2022,01:27:59,0.000,0.0,0.0,0.0
28/01/2022,01:28:59,-0.001,0.0,0.0,0.0
28/01/2022,01:31:01,0.000,0.0,0.0,0.0
28/01/2022,01:31:59,0.000,0.0,0.0,0.0
28/01/2022,01:32:59,0.001,0.0,0.0,0.0
28/01/2022,01:34:07,0.000,0.0,0.0,0.0
28/01/2022,01:34:58,0.000,0.0,0.0,0.0
28/01/2022,01:35:59,0.000,0.0,0.0,0.0
28/01/2022,01:36:59,-0.001,0.0,0.0,0.0
28/01/2022,01:37:59,0.000,0.0,0.0,0.0
28/01/2022,01:38:59,0.000,0.0,0.0,0.0
28/01/2022,01:39:59,0.000,0.0,0.0,0.0
28/01/2022,01:41:16,0.000,0.0,0.0,0.0
28/01/2022,01:43:00,0.000,0.0,0.0,0.0
28/01/2022,01:44:07,0.001,0.0,0.0,0.0
28/01/2022,01:44:59,-0.000,0.0,0.0,0.0
28/01/2022,01:45:59,0.000,0.0,0.0,0.0
28/01/2022,01:46:59,0.000,0.0,0.0,0.0
28/01/2022,01:47:59,0.000,0.0,0.0,0.0
28/01/2022,01:48:59,0.001,0.0,0.0,0.0
28/01/2022,01:50:00,-0.000,0.0,0.0,0.0
28/01/2022,01:51:00,0.000,0.0,0.0,0.0
28/01/2022,01:51:59,0.001,0.0,0.0,0.0
28/01/2022,01:53:08,0.001,0.0,0.0,0.0
28/01/2022,01:54:07,0.000,0.0,0.0,0.0
28/01/2022,01:54:59,0.000,0.0,0.0,0.0
28/01/2022,01:55:59,0.000,0.0,0.0,0.0
28/01/2022,01:57:07,0.001,0.0,0.0,0.0
28/01/2022,01:57:59,0.000,0.0,0.0,0.0
28/01/2022,01:58:59,-0.001,0.0,0.0,0.0
28/01/2022,01:59:59,-0.001,0.0,0.0,0.0
28/01/2022,02:00:59,0.001,0.0,0.0,0.0
28/01/2022,02:01:59,0.000,0.0,0.0,0.0
28/01/2022,02:02:59,0.000,0.0,0.0,0.0
28/01/2022,02:03:59,-0.001,0.0,0.0,0.0
28/01/2022,02:04:59,0.001,0.0,0.0,0.0
28/01/2022,02:05:59,0.000,0.0,0.0,0.0
28/01/2022,02:07:00,0.001,0.0,0.0,0.0
28/01/2022,02:07:59,0.000,0.0,0.0,0.0
28/01/2022,02:08:59,0.000,0.0,0.0,0.0
28/01/2022,02:09:59,0.000,0.0,0.0,0.0
28/01/2022,02:10:59,-0.001,0.0,0.0,0.0
28/01/2022,02:11:59,0.000,0.0,0.0,0.0
28/01/2022,02:13:08,-0.000,0.0,0.0,0.0
28/01/2022,02:13:58,-0.001,0.0,0.0,0.0
28/01/2022,02:15:00,0.000,0.0,0.0,0.0
28/01/2022,02:15:59,0.000,0.0,0.0,0.0
28/01/2022,02:16:46,0.000,0.0,0.0,0.0
28/01/2022,02:18:00,0.000,0.0,0.0,0.0
28/01/2022,02:18:59,-0.000,0.0,0.0,0.0
28/01/2022,02:20:00,0.000,0.0,0.0,0.0
28/01/2022,02:20:59,-0.000,0.0,0.0,0.0
28/01/2022,02:21:59,0.001,0.0,0.0,0.0
28/01/2022,02:23:08,0.000,0.0,0.0,0.0
28/01/2022,02:24:01,0.000,0.0,0.0,0.0
28/01/2022,02:24:59,0.000,0.0,0.0,0.0
28/01/2022,02:25:59,0.000,0.0,0.0,0.0
28/01/2022,02:27:00,0.000,0.0,0.0,0.0
28/01/2022,02:27:59,0.001,0.0,0.0,0.0
28/01/2022,02:28:59,0.000,0.0,0.0,0.0
28/01/2022,02:29:59,0.000,0.0,0.0,0.0
28/01/2022,02:30:59,-0.000,0.0,0.0,0.0
28/01/2022,02:31:59,-0.001,0.0,0.0,0.0
28/01/2022,02:32:59,0.000,0.0,0.0,0.0
28/01/2022,02:34:00,0.000,0.0,0.0,0.0
28/01/2022,02:35:00,0.000,0.0,0.0,0.0
28/01/2022,02:36:07,0.000,0.0,0.0,0.0
28/01/2022,02:37:07,0.000,0.0,0.0,0.0
28/01/2022,02:37:58,0.000,0.0,0.0,0.0
28/01/2022,02:38:59,0.000,0.0,0.0,0.0
28/01/2022,02:39:59,0.001,0.0,0.0,0.0
28/01/2022,02:40:59,0.000,0.0,0.0,0.0
28/01/2022,02:41:59,0.000,0.0,0.0,0.0
28/01/2022,02:42:59,0.001,0.0,0.0,0.0
28/01/2022,02:43:59,-0.000,0.0,0.0,0.0
28/01/2022,02:44:59,0.001,0.0,0.0,0.0
28/01/2022,02:45:59,0.001,0.0,0.0,0.0
28/01/2022,02:47:00,0.000,0.0,0.0,0.0
28/01/2022,02:47:59,-0.001,0.0,0.0,0.0
28/01/2022,02:48:59,0.000,0.0,0.0,0.0
28/01/2022,02:50:07,0.000,0.0,0.0,0.0
28/01/2022,02:50:59,0.001,0.0,0.0,0.0
28/01/2022,02:51:59,0.001,0.0,0.0,0.0
28/01/2022,02:52:59,0.001,0.0,0.0,0.0
28/01/2022,02:53:59,0.000,0.0,0.0,0.0
28/01/2022,02:54:59,0.000,0.0,0.0,0.0
28/01/2022,02:56:00,0.001,0.0,0.0,0.0
28/01/2022,02:56:59,0.000,0.0,0.0,0.0
28/01/2022,02:58:01,0.001,0.0,0.0,0.0
28/01/2022,02:58:59,0.001,0.0,0.0,0.0
28/01/2022,03:00:08,-0.001,0.0,0.0,0.0
28/01/2022,03:00:59,0.002,0.0,0.0,0.0
28/01/2022,03:01:59,0.001,0.0,0.0,0.0
28/01/2022,03:02:58,0.000,0.0,0.0,0.0
28/01/2022,03:03:59,0.000,0.0,0.0,0.0
28/01/2022,03:04:59,0.001,0.0,0.0,0.0
28/01/2022,03:05:59,0.000,0.0,0.0,0.0
28/01/2022,03:06:59,0.000,0.0,0.0,0.0
28/01/2022,03:07:59,0.001,0.0,0.0,0.0
28/01/2022,03:08:58,0.000,0.0,0.0,0.0
28/01/2022,03:10:08,0.000,0.0,0.0,0.0
28/01/2022,03:10:58,0.000,0.0,0.0,0.0
28/01/2022,03:11:59,0.001,0.0,0.0,0.0
28/01/2022,03:13:07,0.001,0.0,0.0,0.0
28/01/2022,03:13:59,0.000,0.0,0.0,0.0
28/01/2022,03:14:59,0.001,0.0,0.0,0.0
28/01/2022,03:16:07,0.000,0.0,0.0,0.0
28/01/2022,03:16:59,0.000,0.0,0.0,0.0
28/01/2022,03:17:59,0.001,0.0,0.0,0.0
28/01/2022,03:18:59,0.000,0.0,0.0,0.0
28/01/2022,03:19:59,0.001,0.0,0.0,0.0
28/01/2022,03:20:59,0.001,0.0,0.0,0.0
28/01/2022,03:21:59,0.000,0.0,0.0,0.0
28/01/2022,03:22:59,0.002,0.0,0.0,0.0
28/01/2022,03:24:02,0.001,0.0,0.0,0.0
28/01/2022,03:24:59,0.001,0.0,0.0,0.0
28/01/2022,03:25:59,0.000,0.0,0.0,0.0
28/01/2022,03:26:59,0.001,0.0,0.0,0.0
28/01/2022,03:28:00,0.001,0.0,0.0,0.0
28/01/2022,03:29:08,-0.001,0.0,0.0,0.0
28/01/2022,03:30:07,-0.000,0.0,0.0,0.0
28/01/2022,03:30:59,0.001,0.0,0.0,0.0
28/01/2022,03:31:59,-0.001,0.0,0.0,0.0
28/01/2022,03:32:59,0.001,0.0,0.0,0.0
28/01/2022,03:33:59,0.000,0.0,0.0,0.0
28/01/2022,03:34:59,0.001,0.0,0.0,0.0
28/01/2022,03:36:00,0.000,0.0,0.0,0.0
28/01/2022,03:36:59,0.000,0.0,0.0,0.0
28/01/2022,03:37:59,0.001,0.0,0.0,0.0
28/01/2022,03:39:07,0.001,0.0,0.0,0.0
28/01/2022,03:40:00,0.001,0.0,0.0,0.0
28/01/2022,03:40:59,0.001,0.0,0.0,0.0
28/01/2022,03:42:00,0.001,0.0,0.0,0.0
28/01/2022,03:42:59,0.001,0.0,0.0,0.0
28/01/2022,03:43:59,0.001,0.0,0.0,0.0
28/01/2022,03:44:59,0.001,0.0,0.0,0.0
28/01/2022,03:46:01,0.001,0.0,0.0,0.0
28/01/2022,03:47:00,0.001,0.0,0.0,0.0
28/01/2022,03:47:51,0.002,0.0,0.0,0.0
28/01/2022,03:49:00,-0.000,0.0,0.0,0.0
28/01/2022,03:50:00,0.002,0.0,0.0,0.0
28/01/2022,03:50:59,0.002,0.0,0.0,0.0
28/01/2022,03:52:00,0.001,0.0,0.0,0.0
28/01/2022,03:53:07,-0.000,0.0,0.0,0.0
28/01/2022,03:53:59,0.000,0.0,0.0,0.0
28/01/2022,03:55:00,-0.000,0.0,0.0,0.0
28/01/2022,03:55:59,0.001,0.0,0.0,0.0
28/01/2022,03:57:00,0.001,0.0,0.0,0.0
28/01/2022,03:57:59,0.000,0.0,0.0,0.0
28/01/2022,03:58:59,0.001,0.0,0.0,0.0
28/01/2022,03:59:59,0.001,0.0,0.0,0.0
28/01/2022,04:00:59,0.001,0.0,0.0,0.0
28/01/2022,04:02:00,0.001,0.0,0.0,0.0
28/01/2022,04:03:00,0.001,0.0,0.0,0.0
28/01/2022,04:03:59,0.001,0.0,0.0,0.0
28/01/2022,04:04:59,0.001,0.0,0.0,0.0
28/01/2022,04:06:08,0.002,0.0,0.0,0.0
28/01/2022,04:06:59,-0.000,0.0,0.0,0.0
28/01/2022,04:08:00,0.001,0.0,0.0,0.0
28/01/2022,04:08:59,0.001,0.0,0.0,0.0
28/01/2022,04:09:59,0.001,0.0,0.0,0.0
28/01/2022,04:10:59,0.000,0.0,0.0,0.0
28/01/2022,04:12:00,-0.000,0.0,0.0,0.0
28/01/2022,04:12:59,-0.000,0.0,0.0,0.0
28/01/2022,04:13:59,0.001,0.0,0.0,0.0
28/01/2022,04:15:00,0.000,0.0,0.0,0.0
28/01/2022,04:16:07,0.002,0.0,0.0,0.0
28/01/2022,04:16:59,0.000,0.0,0.0,0.0
28/01/2022,04:17:59,0.002,0.0,0.0,0.0
28/01/2022,04:18:59,0.001,0.0,0.0,0.0
28/01/2022,04:20:00,0.001,0.0,0.0,0.0
28/01/2022,04:21:08,0.001,0.0,0.0,0.0
28/01/2022,04:22:08,0.002,0.0,0.0,0.0
28/01/2022,04:22:58,0.000,0.0,0.0,0.0
28/01/2022,04:23:59,0.000,0.0,0.0,0.0
28/01/2022,04:25:00,0.001,0.0,0.0,0.0
28/01/2022,04:25:59,0.001,0.0,0.0,0.0
28/01/2022,04:27:00,0.001,0.0,0.0,0.0
28/01/2022,04:28:00,0.000,0.0,0.0,0.0
28/01/2022,04:29:00,0.000,0.0,0.0,0.0
28/01/2022,04:30:00,0.001,0.0,0.0,0.0
28/01/2022,04:30:59,0.001,0.0,0.0,0.0
28/01/2022,04:31:59,-0.000,0.0,0.0,0.0
28/01/2022,04:33:00,0.001,0.0,0.0,0.0
28/01/2022,04:33:59,0.000,0.0,0.0,0.0
28/01/2022,04:34:59,0.001,0.0,0.0,0.0
28/01/2022,04:35:59,-0.000,0.0,0.0,0.0
28/01/2022,04:36:59,0.001,0.0,0.0,0.0
28/01/2022,04:37:59,0.001,0.0,0.0,0.0
28/01/2022,04:38:59,0.000,0.0,0.0,0.0
28/01/2022,04:39:59,0.000,0.0,0.0,0.0
28/01/2022,04:40:59,0.001,0.0,0.0,0.0
28/01/2022,04:41:59,0.000,0.0,0.0,0.0
28/01/2022,04:43:08,0.001,0.0,0.0,0.0
28/01/2022,04:43:59,0.000,0.0,0.0,0.0
28/01/2022,04:45:00,0.000,0.0,0.0,0.0
28/01/2022,04:45:59,0.001,0.0,0.0,0.0
28/01/2022,04:46:59,0.001,0.0,0.0,0.0
28/01/2022,04:47:59,0.001,0.0,0.0,0.0
28/01/2022,04:48:59,0.000,0.0,0.0,0.0
28/01/2022,04:49:59,-0.000,0.0,0.0,0.0
28/01/2022,04:51:00,0.000,0.0,0.0,0.0
28/01/2022,04:52:16,-0.000,0.0,0.0,0.0
28/01/2022,04:54:00,0.000,0.0,0.0,0.0
28/01/2022,04:54:59,0.001,0.0,0.0,0.0
28/01/2022,04:56:01,0.001,0.0,0.0,0.0
28/01/2022,04:56:59,0.001,0.0,0.0,0.0
28/01/2022,04:58:01,-0.000,0.0,0.0,0.0
28/01/2022,04:59:08,0.001,0.0,0.0,0.0
28/01/2022,05:00:00,0.000,0.0,0.0,0.0
28/01/2022,05:00:59,0.001,0.0,0.0,0.0
28/01/2022,05:02:08,0.000,0.0,0.0,0.0
28/01/2022,05:02:59,0.000,0.0,0.0,0.0
28/01/2022,05:03:59,0.001,0.0,0.0,0.0
28/01/2022,05:05:01,0.000,0.0,0.0,0.0
28/01/2022,05:06:01,0.001,0.0,0.0,0.0
28/01/2022,05:06:59,0.000,0.0,0.0,0.0
28/01/2022,05:07:59,0.000,0.0,0.0,0.0
28/01/2022,05:08:59,0.000,0.0,0.0,0.0
28/01/2022,05:10:00,0.001,0.0,0.0,0.0
28/01/2022,05:11:00,0.001,0.0,0.0,0.0
28/01/2022,05:12:08,0.001,0.0,0.0,0.0
28/01/2022,05:12:59,0.001,0.0,0.0,0.0
28/01/2022,05:14:00,0.001,0.0,0.0,0.0
28/01/2022,05:14:59,0.000,0.0,0.0,0.0
28/01/2022,05:15:59,0.001,0.0,0.0,0.0
28/01/2022,05:16:59,-0.000,0.0,0.0,0.0
28/01/2022,05:18:00,-0.001,0.0,0.0,0.0
28/01/2022,05:19:00,0.001,0.0,0.0,0.0
28/01/2022,05:20:00,0.001,0.0,0.0,0.0
28/01/2022,05:20:59,0.001,0.0,0.0,0.0
28/01/2022,05:22:00,0.001,0.0,0.0,0.0
28/01/2022,05:22:59,0.002,0.0,0.0,0.0
28/01/2022,05:23:59,0.000,0.0,0.0,0.0
28/01/2022,05:24:59,0.000,0.0,0.0,0.0
28/01/2022,05:26:08,0.001,0.0,0.0,0.0
28/01/2022,05:26:59,0.001,0.0,0.0,0.0
28/01/2022,05:28:00,0.002,0.0,0.0,0.0
28/01/2022,05:28:59,0.000,0.0,0.0,0.0
28/01/2022,05:29:59,0.001,0.0,0.0,0.0
28/01/2022,05:30:59,-0.000,0.0,0.0,0.0
28/01/2022,05:32:00,-0.000,0.0,0.0,0.0
28/01/2022,05:33:00,0.000,0.0,0.0,0.0
28/01/2022,05:33:59,0.001,0.0,0.0,0.0
28/01/2022,05:34:59,0.001,0.0,0.0,0.0
28/01/2022,05:36:08,0.001,0.0,0.0,0.0
28/01/2022,05:37:00,0.001,0.0,0.0,0.0
28/01/2022,05:37:59,0.002,0.0,0.0,0.0
28/01/2022,05:39:00,0.000,0.0,0.0,0.0
28/01/2022,05:40:00,0.000,0.0,0.0,0.0
28/01/2022,05:41:00,0.001,0.0,0.0,0.0
28/01/2022,05:42:00,-0.000,0.0,0.0,0.0
28/01/2022,05:43:12,0.001,0.0,0.0,0.0
28/01/2022,05:45:00,-0.000,0.0,0.0,0.0
28/01/2022,05:45:59,0.001,0.0,0.0,0.0
28/01/2022,05:47:00,-0.000,0.0,0.0,0.0
28/01/2022,05:47:59,0.001,0.0,0.0,0.0
28/01/2022,05:49:07,0.001,0.0,0.0,0.0
28/01/2022,05:50:00,0.001,0.0,0.0,0.0
28/01/2022,05:51:00,-0.001,0.0,0.0,0.0
28/01/2022,05:51:59,0.001,0.0,0.0,0.0
28/01/2022,05:52:59,0.001,0.0,0.0,0.0
28/01/2022,05:53:59,0.000,0.0,0.0,0.0
28/01/2022,05:55:00,-0.000,0.0,0.0,0.0
28/01/2022,05:56:00,0.001,0.0,0.0,0.0
28/01/2022,05:56:59,0.001,0.0,0.0,0.0
28/01/2022,05:58:00,0.001,0.0,0.0,0.0
28/01/2022,05:59:01,0.000,0.0,0.0,0.0
28/01/2022,06:00:00,0.001,0.0,0.0,0.0
28/01/2022,06:01:00,0.000,0.0,0.0,0.0
28/01/2022,06:02:00,-0.001,0.0,0.0,0.0
28/01/2022,06:02:59,0.001,0.0,0.0,0.0
28/01/2022,06:04:15,0.001,0.0,0.0,0.0
28/01/2022,06:06:00,0.000,0.0,0.0,0.0
28/01/2022,06:07:00,0.001,0.0,0.0,0.0
28/01/2022,06:08:00,0.001,0.0,0.0,0.0
28/01/2022,06:09:00,0.001,0.0,0.0,0.0
28/01/2022,06:10:07,-0.001,0.0,0.0,0.0
28/01/2022,06:10:59,0.001,0.0,0.0,0.0
28/01/2022,06:12:00,0.000,0.0,0.0,0.0
28/01/2022,06:13:07,0.001,0.0,0.0,0.0
28/01/2022,06:13:59,0.001,0.0,0.0,0.0
28/01/2022,06:15:00,0.001,0.0,0.0,0.0
28/01/2022,06:16:10,0.001,0.0,0.0,0.0
28/01/2022,06:16:59,-0.001,0.0,0.0,0.0
28/01/2022,06:18:00,0.001,0.0,0.0,0.0
28/01/2022,06:18:59,0.001,0.0,0.0,0.0
28/01/2022,06:20:00,0.000,0.0,0.0,0.0
28/01/2022,06:21:00,0.001,0.0,0.0,0.0
28/01/2022,06:22:01,0.001,0.0,0.0,0.0
28/01/2022,06:23:00,0.001,0.0,0.0,0.0
28/01/2022,06:23:59,0.001,0.0,0.0,0.0
28/01/2022,06:25:00,-0.000,0.0,0.0,0.0
28/01/2022,06:26:07,0.001,0.0,0.0,0.0
28/01/2022,06:26:59,0.001,0.0,0.0,0.0
28/01/2022,06:28:00,0.002,0.0,0.0,0.0
28/01/2022,06:28:59,0.001,0.0,0.0,0.0
28/01/2022,06:29:59,0.001,0.0,0.0,0.0
28/01/2022,06:30:59,-0.000,0.0,0.0,0.0
28/01/2022,06:31:59,0.000,0.0,0.0,0.0
28/01/2022,06:33:00,0.001,0.0,0.0,0.0
28/01/2022,06:34:00,-0.000,0.0,0.0,0.0
28/01/2022,06:34:59,-0.000,0.0,0.0,0.0
28/01/2022,06:35:59,0.001,0.0,0.0,0.0
28/01/2022,06:37:00,-0.001,0.0,0.0,0.0
28/01/2022,06:38:00,0.001,0.0,0.0,0.0
28/01/2022,06:39:00,0.001,0.0,0.0,0.0
28/01/2022,06:39:59,0.001,0.0,0.0,0.0
28/01/2022,06:41:00,0.001,0.0,0.0,0.0
28/01/2022,06:42:01,0.001,0.0,0.0,0.0
28/01/2022,06:43:00,0.001,0.0,0.0,0.0
28/01/2022,06:43:59,0.001,0.0,0.0,0.0
28/01/2022,06:45:01,0.001,0.0,0.0,0.0
28/01/2022,06:46:00,0.000,0.0,0.0,0.0
28/01/2022,06:46:59,0.000,0.0,0.0,0.0
28/01/2022,06:48:00,0.001,0.0,0.0,0.0
28/01/2022,06:49:00,0.001,0.0,0.0,0.0
28/01/2022,06:50:00,0.001,0.0,0.0,0.0
28/01/2022,06:51:01,0.000,0.0,0.0,0.0
28/01/2022,06:51:59,0.000,0.0,0.0,0.0
28/01/2022,06:53:08,0.001,0.0,0.0,0.0
28/01/2022,06:54:00,-0.000,0.0,0.0,0.0
28/01/2022,06:55:00,0.001,0.0,0.0,0.0
28/01/2022,06:56:01,0.000,0.0,0.0,0.0
28/01/2022,06:57:00,0.001,0.0,0.0,0.0
28/01/2022,06:58:00,0.001,0.0,0.0,0.0
28/01/2022,06:59:00,0.000,0.0,0.0,0.0
28/01/2022,07:00:00,0.001,0.0,0.0,0.0
28/01/2022,07:00:59,0.000,0.0,0.0,0.0
28/01/2022,07:01:59,0.000,0.0,0.0,0.0
28/01/2022,07:03:08,0.002,0.0,0.0,0.0
28/01/2022,07:03:58,0.001,0.0,0.0,0.0
28/01/2022,07:04:59,0.001,0.0,0.0,0.0
28/01/2022,07:06:08,0.000,0.0,0.0,0.0
28/01/2022,07:06:58,0.001,0.0,0.0,0.0
28/01/2022,07:07:59,0.001,0.0,0.0,0.0
28/01/2022,07:09:08,0.000,0.0,0.0,0.0
28/01/2022,07:10:01,-0.000,0.0,0.0,0.0
28/01/2022,07:10:59,0.000,0.0,0.0,0.0
28/01/2022,07:11:59,0.001,0.0,0.0,0.0
28/01/2022,07:13:00,0.001,0.0,0.0,0.0
28/01/2022,07:14:00,0.002,0.0,0.0,0.0
28/01/2022,07:15:00,0.002,0.0,0.0,0.0
28/01/2022,07:16:00,0.001,0.0,0.0,0.0
28/01/2022,07:17:01,0.000,0.0,0.0,0.0
28/01/2022,07:17:59,-0.000,0.0,0.0,0.0
28/01/2022,07:19:00,0.001,0.0,0.0,0.0
28/01/2022,07:19:59,-0.000,0.0,0.0,0.0
28/01/2022,07:21:00,0.001,0.0,0.0,0.0
28/01/2022,07:22:00,0.001,0.0,0.0,0.0
28/01/2022,07:23:00,-0.000,0.0,0.0,0.0
28/01/2022,07:24:00,0.001,0.0,0.0,0.0
28/01/2022,07:24:59,0.001,0.0,0.0,0.0
28/01/2022,07:25:59,0.001,0.0,0.0,0.0
28/01/2022,07:26:59,0.000,0.0,0.0,0.0
28/01/2022,07:28:00,0.001,0.0,0.0,0.0
28/01/2022,07:28:59,0.001,0.0,0.0,0.0
28/01/2022,07:30:08,0.002,0.0,0.0,0.0
28/01/2022,07:30:59,-0.000,0.0,0.0,0.0
28/01/2022,07:31:59,0.000,0.0,0.0,0.0
28/01/2022,07:33:00,0.001,0.0,0.0,0.0
28/01/2022,07:35:00,0.001,0.0,0.0,0.0
28/01/2022,07:36:00,0.001,0.0,0.0,0.0
28/01/2022,07:37:00,0.001,0.0,0.0,0.0
28/01/2022,07:38:00,0.000,0.0,0.0,0.0
28/01/2022,07:38:59,0.001,0.0,0.0,0.0
28/01/2022,07:40:08,0.001,0.0,0.0,0.0
28/01/2022,07:41:01,0.002,0.0,0.0,0.0
28/01/2022,07:42:00,0.001,0.0,0.0,0.0
28/01/2022,07:43:09,0.002,0.0,0.0,0.0
28/01/2022,07:44:00,0.001,0.0,0.0,0.0
28/01/2022,07:44:59,0.001,0.0,0.0,0.0
28/01/2022,07:46:00,0.003,0.0,0.0,0.0
28/01/2022,07:47:00,0.002,0.0,0.0,0.0
28/01/2022,07:48:00,0.002,0.0,0.0,0.0
28/01/2022,07:49:00,0.002,0.0,0.0,0.0
28/01/2022,07:50:00,0.003,0.0,0.0,0.0
28/01/2022,07:51:00,0.003,0.0,0.0,0.0
28/01/2022,07:52:00,0.003,0.0,0.0,0.0
28/01/2022,07:53:08,0.003,0.0,0.0,0.0
28/01/2022,07:53:59,0.003,0.0,0.0,0.0
28/01/2022,07:55:00,0.003,0.0,0.0,0.0
28/01/2022,07:55:59,0.003,0.0,0.0,0.0
28/01/2022,07:56:59,0.003,0.0,0.0,0.0
28/01/2022,07:57:59,0.004,0.0,0.0,0.0
28/01/2022,07:59:00,0.004,0.0,0.0,0.0
28/01/2022,07:59:59,0.004,0.0,0.0,0.0
28/01/2022,08:00:59,0.004,0.0,0.0,0.0
28/01/2022,08:01:59,0.005,0.0,0.0,0.0
28/01/2022,08:03:08,0.005,0.0,0.0,0.0
28/01/2022,08:03:59,0.005,0.0,0.0,0.0
28/01/2022,08:05:00,0.005,0.0,0.0,0.0
28/01/2022,08:05:59,0.005,0.0,0.0,0.0
28/01/2022,08:06:59,0.006,0.0,0.0,0.0
28/01/2022,08:08:00,0.006,0.0,0.0,0.0
28/01/2022,08:09:00,0.007,0.0,0.0,0.0
28/01/2022,08:10:01,0.007,0.0,0.0,0.0
28/01/2022,08:10:59,0.007,0.0,0.0,0.0
28/01/2022,08:12:01,0.008,0.0,0.001,0.001
28/01/2022,08:12:59,0.008,0.0,0.001,0.0
28/01/2022,08:14:08,0.008,0.0,0.001,0.0
28/01/2022,08:15:00,0.008,0.0,0.001,0.0
28/01/2022,08:16:00,0.008,0.0,0.001,0.0
28/01/2022,08:16:59,0.009,0.0,0.001,0.0
28/01/2022,08:17:59,0.010,0.0,0.001,0.0
28/01/2022,08:19:00,0.010,0.0,0.002,0.001
28/01/2022,08:20:00,0.010,0.0,0.002,0.0
28/01/2022,08:21:00,0.011,0.0,0.002,0.0
28/01/2022,08:22:00,0.011,0.0,0.002,0.0
28/01/2022,08:23:00,0.011,0.0,0.002,0.0
28/01/2022,08:24:08,0.011,0.0,0.002,0.0
28/01/2022,08:25:00,0.011,0.0,0.003,0.001
28/01/2022,08:26:00,0.012,0.0,0.003,0.0
28/01/2022,08:26:59,0.013,0.0,0.003,0.0
28/01/2022,08:28:00,0.013,0.0,0.003,0.0
28/01/2022,08:28:59,0.014,0.0,0.003,0.0
28/01/2022,08:30:00,0.015,0.0,0.004,0.001
28/01/2022,08:30:59,0.015,0.0,0.004,0.0
28/01/2022,08:31:59,0.016,0.0,0.004,0.0
28/01/2022,08:32:59,0.016,0.0,0.004,0.0
28/01/2022,08:34:08,0.018,0.0,0.005,0.001
28/01/2022,08:35:01,0.018,0.0,0.005,0.0
28/01/2022,08:36:00,0.018,0.0,0.005,0.0
28/01/2022,08:37:00,0.019,0.0,0.006,0.001
28/01/2022,08:38:00,0.019,0.0,0.006,0.0
28/01/2022,08:39:00,0.021,0.0,0.006,0.0
28/01/2022,08:40:00,0.020,0.0,0.007,0.001
28/01/2022,08:41:00,0.021,0.0,0.007,0.0
28/01/2022,08:42:00,0.022,0.0,0.007,0.0
28/01/2022,08:43:00,0.024,0.0,0.008,0.001
28/01/2022,08:44:00,0.024,0.0,0.008,0.0
28/01/2022,08:45:01,0.024,0.0,0.008,0.0
28/01/2022,08:45:59,0.025,0.0,0.009,0.001
28/01/2022,08:46:59,0.026,0.0,0.009,-0.0
28/01/2022,08:48:00,0.026,0.0,0.01,0.001
28/01/2022,08:48:59,0.027,0.0,0.01,0.0
28/01/2022,08:50:00,0.028,0.0,0.011,0.001
28/01/2022,08:51:01,0.028,0.0,0.011,-0.0
28/01/2022,08:51:59,0.030,0.0,0.012,0.001
28/01/2022,08:53:00,0.031,0.0,0.012,0.0
28/01/2022,08:54:00,0.032,0.0,0.013,0.001
28/01/2022,08:55:00,0.033,0.0,0.013,-0.0
28/01/2022,08:56:00,0.034,0.0,0.014,0.001
28/01/2022,08:57:00,0.035,0.0,0.014,0.0
28/01/2022,08:58:08,0.035,0.0,0.015,0.001
28/01/2022,08:58:59,0.036,0.0,0.016,0.001
28/01/2022,08:59:59,0.037,0.0,0.016,0.0
28/01/2022,09:01:00,0.038,0.0,0.017,0.001
28/01/2022,09:02:00,0.038,0.0,0.017,0.0
28/01/2022,09:03:00,0.039,0.0,0.018,0.001
28/01/2022,09:04:00,0.039,0.0,0.019,0.001
28/01/2022,09:05:00,0.039,0.0,0.019,0.0
28/01/2022,09:05:59,0.040,0.0,0.02,0.001
28/01/2022,09:06:59,0.041,0.0,0.021,0.001
28/01/2022,09:08:08,0.041,0.0,0.021,0.0
28/01/2022,09:08:59,0.041,0.0,0.022,0.001
28/01/2022,09:10:00,0.042,0.0,0.023,0.001
28/01/2022,09:10:59,0.042,0.0,0.023,0.0
28/01/2022,09:12:00,0.043,0.0,0.024,0.001
28/01/2022,09:13:00,0.044,0.0,0.025,0.001
28/01/2022,09:14:00,0.043,0.0,0.026,0.001
28/01/2022,09:15:00,0.042,0.0,0.026,-0.0
28/01/2022,09:16:00,0.041,0.0,0.027,0.001
28/01/2022,09:17:01,0.042,0.0,0.028,0.001
28/01/2022,09:18:00,0.043,0.0,0.028,0.0
28/01/2022,09:20:01,0.046,0.0,0.03,0.002
28/01/2022,09:21:09,0.047,0.0,0.031,0.001
28/01/2022,09:22:00,0.048,0.0,0.031,0.0
28/01/2022,09:22:59,0.050,0.0,0.032,0.001
28/01/2022,09:24:00,0.049,0.0,0.033,0.001
28/01/2022,09:25:00,0.050,0.0,0.034,0.001
28/01/2022,09:26:00,0.051,0.0,0.035,0.001
28/01/2022,09:27:00,0.051,0.0,0.036,0.001
28/01/2022,09:28:01,0.053,0.0,0.037,0.001
28/01/2022,09:29:01,0.053,0.0,0.037,-0.0
28/01/2022,09:30:00,0.053,0.0,0.038,0.001
28/01/2022,09:30:59,0.054,0.0,0.039,0.001
28/01/2022,09:32:00,0.055,0.0,0.04,0.001
28/01/2022,09:33:00,0.057,0.0,0.041,0.001
28/01/2022,09:33:59,0.058,0.0,0.042,0.001
28/01/2022,09:34:59,0.056,0.0,0.043,0.001
28/01/2022,09:36:01,0.057,0.0,0.044,0.001
28/01/2022,09:36:59,0.056,0.0,0.045,0.001
28/01/2022,09:38:00,0.056,0.0,0.046,0.001
28/01/2022,09:39:08,0.057,0.0,0.047,0.001
28/01/2022,09:39:59,0.057,0.0,0.048,0.001
28/01/2022,09:41:00,0.058,0.0,0.049,0.001
28/01/2022,09:43:13,0.060,0.0,0.051,0.002
28/01/2022,09:45:02,0.062,0.0,0.053,0.002
28/01/2022,09:46:00,0.065,0.0,0.054,0.001
28/01/2022,09:47:01,0.065,0.0,0.055,0.001
28/01/2022,09:49:07,0.068,0.0,0.057,0.002
28/01/2022,09:51:01,0.072,0.0,0.059,0.002
28/01/2022,09:52:00,0.074,0.0,0.06,0.001
28/01/2022,09:53:00,0.076,0.0,0.062,0.002
28/01/2022,09:53:59,0.079,0.0,0.063,0.001
28/01/2022,09:54:59,0.083,0.0,0.064,0.001
28/01/2022,09:56:01,0.085,0.0,0.066,0.002
28/01/2022,09:57:00,0.085,0.0,0.067,0.001
28/01/2022,09:58:00,0.085,0.0,0.069,0.002
28/01/2022,09:59:00,0.087,0.0,0.07,0.001
28/01/2022,10:00:22,0.089,0.0,0.072,0.002
28/01/2022,10:02:00,0.094,0.0,0.075,0.003
28/01/2022,10:03:00,0.097,0.0,0.076,0.001
28/01/2022,10:04:00,0.100,0.0,0.078,0.002
28/01/2022,10:04:59,0.104,0.0,0.08,0.002
28/01/2022,10:05:59,0.106,0.0,0.081,0.001
28/01/2022,10:07:00,0.110,0.0,0.083,0.002
28/01/2022,10:08:24,0.115,0.0,0.086,0.003
28/01/2022,10:10:08,0.119,0.0,0.089,0.003
28/01/2022,10:11:00,0.119,0.0,0.091,0.002
28/01/2022,10:12:01,0.119,0.0,0.093,0.002
28/01/2022,10:13:08,0.123,0.0,0.095,0.002
28/01/2022,10:14:00,0.126,0.0,0.097,0.002
28/01/2022,10:15:01,0.130,0.0,0.099,0.002
28/01/2022,10:16:00,0.132,0.0,0.101,0.002
28/01/2022,10:17:00,0.133,0.0,0.103,0.002
28/01/2022,10:17:59,0.135,0.0,0.106,0.003
28/01/2022,10:19:01,0.138,0.0,0.108,0.002
28/01/2022,10:20:00,0.141,0.0,0.11,0.002
28/01/2022,10:21:00,0.143,0.0,0.113,0.003
28/01/2022,10:22:00,0.142,0.0,0.115,0.002
28/01/2022,10:24:11,0.139,0.0,0.12,0.005
28/01/2022,10:26:01,0.144,0.0,0.124,0.004
28/01/2022,10:27:01,0.145,0.0,0.127,0.003
28/01/2022,10:27:59,0.146,0.0,0.129,0.002
28/01/2022,10:29:01,0.147,0.0,0.132,0.003
28/01/2022,10:30:00,0.148,0.0,0.134,0.002
28/01/2022,10:31:03,0.150,0.0,0.137,0.003
28/01/2022,10:32:00,0.150,0.0,0.139,0.002
28/01/2022,10:33:00,0.151,0.0,0.142,0.003